RH
9 9 8 8 9 9 9 8 8 8 9 9 9 10 10 10 11 11 11 12 12 12 13 13 13 14 14 15 15 16 17 18 18 19 20 21 23 24 25 25 26 27 29 30 31 32 33 33 34 34 34 33 33 32 32 32 32 32 32 32 32 31 30 28 27 26 25 24 23 23 22 21 20 20 19 17 16 15 15 14 13 12 11 11 11
11 10 9 9 8 9 9 9 9 9 10 10 10 11 11 11 11 11 12 12 12 13 13 13 14 14 15 16 16 18 19 20 21 23 23 24 26 27 27 29 30 31 33 34 35 35 35 35 35 36 35 35 35 34 35 34 34 35 35 35 33 33 32 31 30 29 27 26 25 24 24 23 22 22 21 20 20 19 17 17 16 15 14 13 13
12 12 11 11 10 10 10 9 10 10 11 11 11 11 11 12 12 12 13 13 14 14 14 15 15 16 17 18 20 21 22 24 25 27 28 28 30 30 32 33 34 35 36 36 36 36 37 37 37 37 38 38 38 37 37 38 38 38 39 39 37 36 36 34 34 33 31 29 28 26 25 25 25 23 23 23 23 22 20 19 19 18 18 17 16
13 13 13 13 12 12 11 11 11 11 11 12 12 12 12 13 13 14 14 15 15 16 17 18 19 20 21 22 24 25 26 28 30 31 32 33 34 35 36 37 37 38 38 38 39 39 40 40 40 40 40 40 40 40 40 39 40 40 41 41 40 39 38 36 36 37 35 33 31 29 28 28 27 27 27 26 25 25 24 23 22 21 21 21 20
15 14 14 14 14 14 13 13 13 12 12 13 14 14 14 14 14 14 15 16 17 19 20 22 24 25 26 27 28 30 31 33 35 36 37 37 37 38 38 38 39 39 40 40 41 41 41 42 42 42 42 41 41 40 39 38 37 38 37 37 36 36 36 35 35 35 36 35 33 30 29 29 30 29 29 28 28 28 28 27 26 25 24 24 23
15 15 16 16 16 16 16 16 16 16 16 16 16 16 15 15 15 15 17 18 20 22 24 25 26 28 29 31 33 35 37 38 39 40 40 41 41 41 40 39 39 40 41 41 41 42 42 42 42 43 43 42 42 41 40 39 38 37 36 35 34 32 32 32 32 32 33 34 34 32 30 30 29 29 29 29 29 29 29 29 29 29 28 27 27
16 16 17 17 18 18 18 18 19 19 19 18 18 17 17 17 17 18 20 21 23 24 25 26 28 30 32 35 37 39 40 40 41 42 43 43 42 42 41 40 40 40 40 40 41 42 42 43 43 44 45 46 46 45 45 45 43 43 42 40 39 36 33 32 32 31 30 30 31 31 33 33 30 29 29 29 29 28 28 29 30 30 30 30 30
17 17 18 18 18 19 19 20 20 20 20 20 20 19 19 19 20 21 22 24 25 25 26 28 31 34 36 39 40 41 41 41 42 43 42 41 39 39 39 39 39 39 40 40 40 40 41 43 44 46 49 51 51 51 51 50 50 49 47 46 45 42 39 37 36 34 32 30 28 27 30 33 32 30 31 30 30 29 28 28 29 29 29 30 31
18 19 19 19 20 20 20 20 21 21 21 21 20 20 20 20 22 24 25 26 27 28 30 33 35 38 41 41 41 41 42 42 41 40 38 36 36 36 36 36 36 35 35 35 35 36 37 39 41 43 46 48 49 50 50 50 51 50 48 47 45 44 43 42 41 40 37 36 32 29 30 33 32 32 32 32 31 31 29 27 28 29 29 29 30
19 20 20 21 21 21 21 21 21 22 21 21 20 20 21 23 26 27 28 29 30 32 34 37 40 43 44 42 42 42 42 41 39 37 36 36 35 35 35 34 32 31 30 29 30 30 31 33 35 36 39 41 42 43 43 44 46 47 46 45 44 44 43 43 44 44 43 41 37 33 34 37 37 35 35 35 33 33 31 28 28 29 29 28 29
20 21 22 22 22 21 21 21 22 22 22 22 23 24 26 28 30 31 32 33 34 37 39 42 45 46 44 43 44 43 41 40 38 37 38 37 36 35 34 32 31 30 28 27 27 28 28 29 31 32 34 36 37 37 37 37 39 40 41 42 42 43 43 42 43 45 45 43 40 36 34 37 39 39 39 38 37 35 33 30 28 28 28 27 28
22 22 23 22 22 21 21 22 23 24 25 26 28 30 31 33 34 35 36 38 40 41 44 48 48 46 45 45 44 42 40 39 38 38 37 36 35 34 32 31 30 30 30 30 30 29 28 27 28 30 31 33 34 34 33 32 33 33 33 34 36 39 42 45 45 45 44 43 42 40 37 36 37 38 39 40 40 37 35 33 30 30 29 26 27
23 23 23 23 23 22 23 24 26 27 29 31 33 34 35 36 37 39 41 43 44 47 50 50 48 47 47 45 42 39 38 37 36 35 34 33 32 31 30 30 31 32 33 33 34 33 30 27 27 29 31 32 32 32 32 31 30 29 28 28 29 32 36 40 43 44 42 41 41 40 39 37 37 38 40 41 41 40 40 39 37 36 35 30 29
25 25 25 24 24 24 25 27 29 31 33 34 35 36 37 38 41 43 45 46 49 52 52 50 48 48 46 42 39 37 35 32 30 28 28 27 26 26 25 27 30 33 33 34 35 34 29 26 26 28 30 30 30 30 30 29 29 28 27 26 26 28 31 35 40 44 44 43 42 41 40 39 39 40 43 44 45 48 51 53 51 48 45 39 35
27 27 27 27 27 28 29 30 32 34 35 36 37 38 40 42 45 47 48 51 53 53 51 49 49 46 42 38 35 32 29 26 24 23 22 21 20 20 20 22 25 29 32 35 33 27 24 24 25 27 30 30 29 29 28 28 28 27 27 26 27 30 36 40 45 48 48 47 46 44 43 42 43 47 50 51 52 55 59 62 62 60 56 49 43
28 28 29 30 31 32 33 34 35 36 37 39 40 42 45 47 48 50 53 55 54 51 50 49 46 41 36 33 30 28 26 24 22 21 20 19 19 19 19 21 23 26 32 33 27 21 23 25 26 28 30 30 28 28 28 28 28 28 28 27 27 31 38 44 49 50 49 48 46 45 45 46 51 55 57 57 59 60 61 63 65 65 62 57 52
28 29 30 31 33 34 35 36 37 38 41 42 44 47 49 51 53 56 58 56 52 51 50 47 41 36 32 30 28 26 24 22 21 20 19 19 19 18 19 21 24 28 30 26 20 20 23 26 27 28 29 28 28 28 29 30 30 30 29 28 29 32 37 43 46 47 46 45 44 44 44 48 56 61 61 61 61 61 62 62 62 63 62 60 57
29 30 31 32 34 35 36 37 39 42 44 46 49 51 53 56 60 61 58 54 52 51 47 41 35 33 31 29 27 25 23 22 21 20 19 19 19 19 19 19 22 24 23 19 19 21 22 24 26 28 28 28 28 29 30 31 31 31 30 30 31 34 38 40 41 42 42 43 44 46 46 49 55 61 64 64 63 62 62 60 58 57 58 58 57
31 31 32 33 34 35 37 39 42 44 47 50 53 55 59 62 63 59 55 54 53 49 42 36 33 31 30 28 26 24 23 22 21 20 20 19 20 20 19 19 20 20 20 20 21 22 23 25 26 27 27 28 28 29 30 31 31 31 31 32 33 35 38 40 41 43 44 46 48 49 49 50 54 60 64 65 65 64 63 61 59 56 55 56 57
32 33 34 34 35 37 39 41 43 46 49 53 57 61 64 65 60 56 56 55 51 43 37 34 32 30 29 27 25 24 23 22 21 21 20 21 21 21 20 20 20 20 21 22 22 23 24 25 25 26 27 28 29 30 30 31 31 32 32 33 34 35 36 39 42 44 46 47 48 49 51 53 56 60 64 66 66 65 64 63 61 57 55 55 55
34 35 35 35 37 39 40 42 44 47 52 57 63 67 66 62 58 57 57 53 46 39 35 33 31 30 28 27 25 24 23 22 21 21 22 22 22 21 21 20 20 21 21 21 23 24 24 25 26 27 28 29 30 30 30 30 31 32 33 34 34 35 36 38 41 44 47 48 48 49 51 54 57 60 63 65 65 65 65 63 62 58 56 56 55
36 36 36 37 38 39 40 42 45 49 55 63 68 69 65 60 58 59 56 49 42 37 35 33 31 30 28 27 25 24 23 22 21 22 22 23 23 22 21 21 20 21 21 21 23 23 24 25 27 27 28 28 28 29 29 30 31 32 33 34 35 36 37 39 41 45 48 50 50 50 51 53 55 57 59 61 61 62 62 61 61 59 57 57 57
38 38 38 39 40 41 41 43 47 53 61 68 71 68 63 60 61 59 53 46 40 37 34 33 31 30 28 27 25 24 23 22 22 22 22 22 23 23 22 22 21 21 22 22 23 24 25 26 27 27 27 27 27 29 30 30 31 32 33 34 35 37 38 40 42 44 46 48 49 50 51 53 53 54 56 57 57 58 58 59 59 59 59 58 57
40 40 41 42 42 42 43 45 50 57 65 71 70 66 63 63 62 57 49 43 40 37 34 33 31 30 28 27 25 24 23 22 23 23 23 23 23 23 23 24 24 23 24 24 24 25 26 26 26 27 27 28 29 30 32 33 33 34 34 35 36 37 38 39 40 42 43 44 46 47 49 51 52 52 53 54 56 56 57 57 58 60 62 63 63
41 42 44 44 44 44 45 49 55 62 69 72 70 66 65 65 61 54 47 43 39 37 35 33 32 30 28 26 24 24 23 23 23 23 23 23 23 23 23 24 25 25 26 26 26 26 26 27 27 28 29 30 31 33 34 35 35 35 35 36 36 37 37 38 39 40 40 41 42 44 46 48 50 51 51 53 54 56 57 58 59 62 64 67 71
43 45 46 46 47 48 50 54 60 66 73 74 70 68 68 65 59 51 46 43 40 37 35 33 31 30 27 26 24 24 23 23 23 23 23 23 23 23 23 23 24 25 25 26 27 27 27 28 30 31 32 33 34 35 36 37 37 37 37 38 38 38 38 39 39 39 40 40 41 43 45 47 49 50 53 54 56 58 59 59 61 62 65 68 73
45 46 48 49 50 52 55 60 65 71 75 74 71 70 69 63 56 50 47 44 40 37 35 33 31 29 27 26 25 24 24 23 24 24 23 23 23 23 23 23 23 23 23 24 24 26 27 29 31 33 35 35 36 36 38 39 38 38 38 38 39 39 39 40 40 41 41 41 41 42 44 46 49 51 53 56 59 61 62 63 64 64 65 65 66
46 48 50 51 53 56 60 64 69 75 77 74 72 71 67 60 54 50 47 44 40 37 34 32 31 29 27 26 25 25 24 24 24 24 24 24 24 23 23 23 23 23 23 23 23 24 26 28 30 33 34 35 35 37 38 39 39 39 39 39 39 39 39 40 41 42 43 43 43 44 45 48 51 53 56 58 61 63 66 68 70 70 70 68 67
48 50 51 53 55 59 63 68 73 78 77 75 73 71 65 58 53 50 47 44 40 36 34 32 30 29 27 26 26 25 25 25 25 25 25 25 24 24 24 24 24 24 23 23 24 24 25 27 29 31 32 32 34 35 38 39 39 39 39 39 39 39 39 40 40 42 43 45 47 47 48 49 52 56 59 61 63 65 67 70 73 76 76 75 75
50 51 52 54 58 62 67 73 78 79 78 76 74 70 63 57 52 49 47 43 39 36 34 32 30 28 27 27 26 26 26 25 26 26 26 26 25 25 25 25 25 25 25 25 26 26 27 28 29 30 31 31 32 35 37 39 40 40 40 40 40 40 40 41 42 44 45 47 48 49 50 51 53 56 59 62 64 66 67 70 74 77 80 81 82
52 52 54 56 61 66 72 78 81 81 79 78 74 68 62 56 51 49 47 42 38 36 34 32 30 29 28 27 27 27 27 26 26 26 26 26 27 26 27 27 27 27 27 27 27 28 29 30 31 32 32 32 33 36 38 40 41 42 46 46 45 45 46 47 48 48 48 49 50 51 52 53 54 55 57 60 63 66 68 71 74 77 81 85 87
53 54 56 60 64 70 76 81 83 82 81 78 73 67 60 54 50 49 46 41 38 35 33 32 30 29 29 28 28 27 27 27 27 28 27 27 28 28 28 28 28 28 28 29 29 30 31 32 33 33 34 34 36 38 41 42 43 46 51 53 51 50 51 51 51 51 51 51 53 54 55 55 56 57 57 58 60 63 66 69 73 77 81 84 87
54 56 59 63 67 73 80 84 84 83 81 77 71 65 58 53 50 48 45 41 38 35 33 32 31 30 29 29 29 28 28 28 28 28 29 29 29 29 29 29 29 29 30 30 31 33 34 35 35 35 35 36 38 41 44 45 46 47 51 52 52 53 54 54 54 53 53 53 53 55 56 55 56 58 58 59 59 61 63 65 68 72 77 83 86
57 60 63 66 71 77 83 86 85 83 80 75 69 63 57 52 50 48 44 40 37 35 33 32 31 31 31 30 30 29 28 29 29 29 30 30 30 30 31 31 30 31 31 32 34 35 36 37 37 37 37 38 41 44 47 48 49 49 49 51 54 56 56 57 57 56 56 56 56 57 57 57 58 60 61 63 63 62 63 64 66 68 72 78 84
61 64 67 70 74 81 86 86 85 82 78 72 67 61 55 51 49 47 43 40 37 35 34 33 32 32 32 31 30 30 29 29 30 30 31 31 31 32 32 32 32 32 33 34 36 38 40 40 40 40 40 41 43 47 50 52 52 52 51 54 57 59 59 60 60 60 60 59 58 57 57 56 57 58 60 64 65 64 64 65 66 67 69 71 76
65 67 70 73 78 84 87 87 85 81 76 71 66 59 54 51 49 46 42 39 37 36 35 34 33 33 32 32 31 30 30 30 31 31 32 32 33 33 34 34 34 34 35 36 38 41 42 43 44 44 43 43 46 50 53 55 56 56 56 55 56 57 59 59 59 59 58 58 56 55 55 55 54 54 56 60 62 62 62 64 66 67 67 67 68
68 70 72 77 83 87 89 87 84 80 74 70 64 57 53 51 48 45 42 39 37 37 35 35 34 34 33 33 32 31 31 32 32 33 33 34 34 35 35 35 35 36 37 38 40 42 44 45 45 46 46 46 49 53 57 59 61 60 60 59 57 57 58 59 59 59 58 56 55 55 55 54 54 55 56 58 60 62 63 65 67 68 68 67 65
71 72 75 81 86 89 89 87 83 77 72 67 62 56 52 50 48 44 41 39 38 37 36 36 35 35 35 34 33 33 33 33 34 34 34 35 36 36 37 37 37 37 38 39 41 43 44 45 46 47 48 48 50 55 60 63 64 64 64 63 62 62 62 62 63 63 62 59 57 56 56 56 54 56 58 59 62 64 64 64 65 66 67 66 65
73 75 79 84 88 90 89 86 81 75 70 65 60 55 52 49 47 44 41 39 39 38 37 37 36 36 36 36 35 35 35 35 35 36 36 36 37 38 38 38 38 38 39 41 42 44 45 46 46 46 48 48 49 54 61 65 67 67 66 66 65 65 65 65 64 64 63 62 60 58 58 57 56 56 58 60 65 69 69 67 66 65 64 65 68
75 79 83 87 90 91 89 85 80 74 69 63 58 53 51 48 46 43 40 40 40 39 38 37 37 38 38 37 37 37 36 37 37 37 38 38 39 40 40 40 40 41 41 42 44 45 45 46 47 47 49 49 49 52 59 65 67 69 69 68 67 68 69 69 68 68 69 69 68 65 62 60 59 58 58 62 69 75 75 73 72 70 67 67 71
79 83 87 90 92 91 89 85 80 74 68 61 56 53 51 48 44 42 41 40 41 40 39 39 39 40 40 39 39 39 38 39 39 40 40 40 41 41 41 42 42 42 43 44 45 46 46 47 49 50 50 51 51 52 56 62 66 68 70 71 70 70 71 71 72 72 72 72 71 69 66 65 64 63 62 64 68 73 75 74 74 74 72 71 72
83 87 90 92 93 92 90 86 80 73 66 60 56 52 49 46 44 42 41 42 41 41 40 41 41 42 41 41 41 41 41 41 42 42 42 41 42 42 42 42 42 43 44 45 46 46 47 48 50 52 54 56 56 56 58 62 66 68 69 71 72 71 71 72 74 74 74 74 74 73 71 69 70 68 66 66 68 72 75 77 78 78 78 78 80
86 89 92 93 94 93 90 85 79 72 65 59 55 51 48 45 43 42 43 43 42 42 42 43 43 44 43 43 43 43 43 43 43 43 43 42 42 42 42 42 43 43 44 46 47 47 47 48 50 53 57 59 60 61 62 65 67 70 71 71 72 72 72 74 77 78 79 80 81 81 81 80 79 77 76 75 76 77 79 80 82 84 85 86 88
89 92 93 94 95 93 90 85 78 70 63 59 54 51 48 45 43 44 45 43 43 44 44 45 45 45 45 45 45 45 44 44 44 44 43 42 42 43 44 44 45 46 46 47 47 48 49 49 50 52 56 59 61 63 65 67 69 70 73 74 74 74 74 76 78 80 82 83 84 85 86 87 86 85 85 86 85 84 84 84 86 89 91 90 90
93 95 95 95 96 94 90 84 76 67 61 57 53 50 47 45 44 45 45 45 45 46 46 46 47 47 47 47 46 46 45 45 45 44 43 43 44 45 46 47 47 48 48 49 50 51 52 52 52 52 55 58 61 63 65 68 70 71 74 77 77 77 77 77 78 79 81 83 83 84 85 87 88 90 90 90 90 90 90 90 91 93 94 92 91
95 96 95 96 96 94 89 81 72 65 60 56 52 49 47 46 46 46 46 46 47 48 48 48 49 48 49 49 48 47 46 46 45 45 45 45 46 48 49 50 50 50 51 52 54 55 56 55 54 54 56 59 62 64 67 69 71 71 74 78 81 81 82 81 79 78 79 81 81 81 82 84 86 88 89 89 90 91 92 92 92 93 94 94 94
97 96 96 97 96 92 86 77 69 63 59 56 52 49 48 47 47 47 47 47 48 49 50 50 50 50 51 50 49 49 48 47 46 46 47 48 48 50 51 52 53 53 54 56 57 58 59 58 57 58 59 61 63 66 69 71 73 73 75 78 80 81 82 84 84 84 84 83 83 84 85 86 87 87 88 89 89 89 90 91 91 92 92 93 94
97 97 97 98 96 90 82 73 66 61 59 56 52 50 49 48 48 48 48 49 50 51 52 52 52 52 52 52 51 50 49 49 49 49 50 51 52 53 53 54 55 57 58 60 61 61 62 61 61 61 61 63 66 70 73 75 75 75 75 76 78 80 83 86 88 89 88 86 85 86 88 89 89 90 91 92 93 93 94 93 93 93 93 94 93
97 97 98 98 94 87 78 69 63 60 59 56 52 50 49 49 49 49 50 50 51 53 54 54 54 54 54 54 53 52 51 51 51 52 53 54 54 55 55 56 57 60 63 64 64 65 64 64 63 64 66 69 71 74 79 81 81 80 81 83 85 87 88 90 92 92 92 91 89 89 89 89 90 90 91 93 94 96 97 96 96 96 96 96 95
98 98 98 97 91 83 73 65 61 60 59 56 52 50 50 50 51 51 51 52 53 55 55 55 54 54 55 56 54 53 52 53 54 54 55 55 56 57 59 60 61 64 66 67 68 68 68 68 69 71 73 76 76 78 82 86 86 85 87 91 92 92 91 90 90 92 93 93 92 92 92 93 94 95 95 95 95 95 96 96 96 95 95 96 96
98 98 98 94 86 77 68 63 60 60 59 56 52 50 51 52 52 52 53 54 55 56 56 55 55 55 56 56 55 53 54 55 56 57 57 57 58 60 63 66 67 69 70 71 72 72 72 74 77 77 75 75 77 79 82 86 87 86 86 88 91 92 91 88 86 87 87 87 89 91 91 93 96 98 98 99 99 99 98 98 97 97 96 95 95